Retour au catalogue

STARLINK-32346

ActifCommunicationsVLEO
NORAD 61849·PAYLOAD·🇺🇸 United States

Lancé Nov 7, 2024 depuis Cape Canaveral Space Force Station

Loading…

Prochains Passages (prochaines 24 heures)

TLE

FraisSource: CelesTrak SupGP

Époque: Sep 14, 2026, 22:20 UTC

1 61849C 24202E   26257.93104167  .00025240  00000+0  91433-3 0  2573
2 61849  42.9994 238.2070 0001367 263.1807 228.9131 15.27561506    18

Suivez STARLINK-32346 en temps réel avec AllMySat

Download on the App Store